Retour au catalogue

ARIANE 2 DEB

LostGTO
NORAD 27602·DEBRIS·🇫🇷 France

Lancé Jan 27, 1989 depuis Guiana Space Centre

Loading…

TLE

PériméSource: Space-Track

Époque: Mar 22, 2026, 11:39 UTC

1 27602U 89006AC  26081.48607134 -.00000370  00000-0 -15245-1 0  9990
2 27602   7.7885  16.6981 7068112 216.2694 328.5037  2.25350494 97716

Suivez ARIANE 2 DEB en temps réel avec AllMySat

Download on the App Store